Solana Beach (660, 1081) Station Data

Red Flag Warning: No
Fire Weather Zone: 243
SDGE Region: Beach Cities
Lat/Lon: 33.007/-117.276

Observations

Time Wind Speed/Gust Temp(F) RH Fuel Moist Fuel Temp(F) Dewpt(F) Tmax(F) Tmin(F) Accum Precip 10-min Precip SL Press(mb)
6/27 4:50pm 284 6 G 8 68° 86% - - 64° 71.2° 54.7° - - 1012.0
6/27 4:40pm 285 6 G 9 69° 86% - - 64° 71.2° 54.7° - - 1012.0
6/27 4:30pm 290 6 G 9 69° 86% - - 64° 71.2° 54.7° - - 1012.0
6/27 4:20pm 274 7 G 9 68° 86% - - 64° 71.2° 54.7° - - 1012.0
6/27 4:10pm 266 7 G 9 69° 85% - - 64° 71.2° 54.7° - - 1013.0
6/27 4:00pm 267 6 G 9 69° 85% - - 64° 71.2° 54.7° - - 1013.0
6/27 3:50pm 272 6 G 8 69° 85% - - 64° 71.2° 54.7° - - 1013.0
6/27 3:40pm 269 6 G 9 69° 85% - - 64° 71.2° 54.7° - - 1013.0
6/27 3:30pm 268 7 G 9 69° 85% - - 64° 71.2° 54.7° - - 1013.0
6/27 3:20pm 255 7 G 9 69° 84% - - 64° 71.2° 54.7° - - 1013.0
6/27 3:10pm 255 7 G 9 70° 82% - - 64° 71.2° 54.7° - - 1013.0
6/27 3:00pm 249 7 G 9 70° 81% - - 64° 71.2° 54.7° - - 1013.0
6/27 2:50pm 259 6 G 9 70° 80% - - 63° 71.2° 54.7° - - 1013.0
6/27 2:40pm 264 7 G 9 70° 80% - - 63° 71.2° 54.7° - - 1013.0
6/27 2:30pm 273 7 G 9 70° 79% - - 63° 71.2° 54.7° - - 1013.0
6/27 2:20pm 265 7 G 9 70° 79% - - 63° 71.2° 54.7° - - 1013.0
6/27 2:10pm 274 8 G 10 71° 78% - - 63° 71.2° 54.7° - - 1013.0
6/27 2:00pm 278 7 G 9 70° 79% - - 63° 71° 54.7° - - 1013.0
6/27 1:50pm 286 7 G 9 70° 79% - - 63° 70.9° 54.7° - - 1013.0
6/27 1:40pm 284 7 G 10 70° 80% - - 64° 70.9° 54.7° - - 1013.0
6/27 1:30pm 286 8 G 10 70° 82% - - 64° 70.9° 54.7° - - 1013.0
6/27 1:20pm 278 8 G 10 70° 82% - - 65° 70.9° 54.7° - - 1013.0
6/27 1:10pm 285 8 G 10 70° 83% - - 65° 70.8° 54.7° - - 1013.0
6/27 1:00pm 289 8 G 9 70° 85% - - 65° 70.8° 54.7° - - 1013.0
6/27 12:50pm 286 7 G 10 70° 86% - - 65° 70.8° 54.7° - - 1013.0
6/27 12:40pm 289 7 G 9 70° 86% - - 65° 70.8° 54.7° - - 1013.0
6/27 12:30pm 290 6 G 9 70° 86% - - 66° 70.8° 54.7° - - 1013.0
6/27 12:20pm 294 6 G 9 70° 85% - - 66° 70.8° 54.7° - - 1013.0
6/27 12:10pm 292 6 G 8 70° 84% - - 65° 70.7° 54.7° - - 1013.0
6/27 12:00pm 294 6 G 9 70° 83% - - 65° 70.7° 54.7° - - 1013.0
6/27 11:50am 292 7 G 9 70° 84% - - 65° 70.5° 54.7° - - 1013.0
6/27 11:40am 291 6 G 8 70° 85% - - 65° 70.3° 54.7° - - 1013.0
6/27 11:30am 284 6 G 8 70° 85% - - 65° 70.3° 54.7° - - 1013.0
6/27 11:20am 286 6 G 8 69° 88% - - 65° 69.8° 54.7° - - 1013.0
6/27 11:10am 269 6 G 8 68° 91% - - 66° 69.5° 54.7° - - 1013.0
6/27 11:00am 241 4 G 7 67° 93% - - 65° 67.9° 54.7° - - 1013.0
6/27 10:50am 250 4 G 6 67° 93% - - 65° 67.9° 54.7° - - 1013.0
6/27 10:40am 252 4 G 6 66° 94% - - 64° 67.9° 54.7° - - 1013.0
6/27 10:30am 258 4 G 6 67° 93% - - 65° 67.9° 54.7° - - 1013.0
6/27 10:20am 274 4 G 6 66° 92% - - 64° 67.9° 54.7° - - 1013.0
6/27 10:10am 274 5 G 8 67° 91% - - 64° 67.9° 54.7° - - 1013.0
6/27 10:00am 274 5 G 6 67° 91% - - 64° 67.9° 54.7° - - 1013.0
6/27 9:50am 267 4 G 6 67° 91% - - 64° 67.8° 54.7° - - 1013.0
6/27 9:40am 281 4 G 5 67° 91% - - 64° 67.4° 54.7° - - 1013.0
6/27 9:30am 276 4 G 6 67° 91% - - 64° 67.4° 54.7° - - 1013.0
6/27 9:20am 271 5 G 7 67° 92% - - 64° 67.3° 54.7° - - 1013.0
6/27 9:10am 265 4 G 6 66° 93% - - 64° 67° 54.7° - - 1013.0
6/27 9:00am 251 4 G 5 66° 93% - - 64° 66.9° 54.7° - - 1013.0
6/27 8:50am 256 4 G 5 66° 94% - - 64° 66.8° 54.7° - - 1013.0
6/27 8:40am 260 3 G 5 66° 94% - - 64° 66.6° 54.7° - - 1013.0
6/27 8:30am 249 3 G 5 66° 95% - - 64° 66.5° 54.7° - - 1013.0
6/27 8:20am 257 3 G 4 66° 95% - - 64° 66.3° 54.7° - - 1013.0
6/27 8:10am 224 1 G 3 65° 96% - - 64° 66.2° 54.7° - - 1013.0
6/27 8:00am 121 1 G 2 64° 97% - - 64° 65.5° 54.7° - - 1013.0
6/27 7:50am 113 3 G 4 63° 97% - - 62° 63.7° 54.7° - - 1013.0
6/27 7:40am 105 4 G 6 61° 97% - - 60° 63.3° 54.7° - - 1013.0
6/27 7:30am 105 5 G 7 60° 97% - - 60° 63.3° 54.7° - - 1013.0
6/27 7:20am 98 5 G 7 59° 97% - - 58° 63.3° 54.7° - - 1013.0
6/27 7:10am 95 6 G 8 59° 97% - - 58° 63.3° 54.7° - - 1013.0
6/27 7:00am 103 6 G 9 58° 97% - - 57° 63.3° 54.7° - - 1012.0
6/27 6:50am 101 7 G 10 57° 96% - - 56° 63.3° 54.7° - - 1012.0
6/27 6:40am 100 7 G 10 56° 94% - - 55° 63.3° 54.7° - - 1012.0
6/27 6:30am 96 6 G 9 57° 92% - - 54° 63.3° 54.7° - - 1012.0
6/27 6:20am 96 6 G 8 56° 92% - - 54° 63.3° 54.7° - - 1012.0
6/27 6:10am 98 6 G 8 56° 92% - - 53° 63.3° 54.7° - - 1012.0
6/27 6:00am 103 6 G 8 55° 92% - - 53° 63.3° 54.7° - - 1012.0
6/27 5:50am 101 5 G 7 55° 93% - - 53° 63.3° 54.7° - - 1012.0
6/27 5:40am 105 5 G 7 55° 93% - - 53° 63.3° 54.7° - - 1012.0
6/27 5:30am 101 6 G 7 56° 94% - - 54° 63.3° 54.7° - - 1012.0
6/27 5:20am 100 5 G 7 56° 94% - - 54° 63.3° 55.4° - - 1012.0
6/27 5:10am 109 5 G 7 56° 93% - - 54° 63.3° 55.4° - - 1012.0
6/27 5:00am 107 5 G 6 56° 93% - - 54° 63.3° 55.9° - - 1012.0
6/27 4:50am 111 4 G 6 57° 91% - - 54° 63.3° 56.1° - - 1012.0
6/27 4:40am 108 4 G 5 57° 91% - - 54° 63.3° 56.1° - - 1012.0
6/27 4:30am 106 5 G 6 56° 92% - - 54° 63.3° 56.1° - - 1012.0
6/27 4:20am 96 6 G 7 57° 93% - - 55° 63.3° 56.1° - - 1012.0
6/27 4:10am 99 5 G 7 57° 93% - - 55° 63.3° 56.5° - - 1012.0
6/27 4:00am 95 5 G 8 57° 92% - - 55° 63.3° 56.6° - - 1012.0
6/27 3:50am 93 5 G 8 58° 91% - - 55° 63.3° 57.2° - - 1012.0
6/27 3:40am 96 5 G 7 58° 91% - - 55° 63.3° 57.3° - - 1012.0
6/27 3:30am 97 5 G 6 58° 92% - - 56° 63.3° 57.6° - - 1012.0
6/27 3:20am 107 5 G 7 58° 93% - - 56° 63.3° 57.6° - - 1012.0
6/27 3:10am 105 5 G 6 58° 93% - - 56° 63.3° 57.7° - - 1012.0
6/27 3:00am 96 5 G 6 58° 93% - - 56° 63.3° 58.1° - - 1012.0
6/27 2:50am 101 5 G 6 59° 93% - - 57° 63.3° 58.4° - - 1012.0
6/27 2:40am 104 4 G 5 60° 93% - - 58° 63.3° 59.4° - - 1012.0
6/27 2:30am 97 4 G 5 60° 93% - - 58° 63.3° 59.4° - - 1012.0
6/27 2:20am 100 4 G 5 60° 94% - - 58° 63.3° 59.4° - - 1012.0
6/27 2:10am 87 5 G 6 60° 95% - - 58° 63.3° 59.4° - - 1012.0
6/27 2:00am 97 5 G 7 60° 95% - - 59° 63.3° 59.4° - - 1012.0
6/27 1:50am 93 4 G 6 60° 96% - - 59° 63.3° 59.6° - - 1012.0
6/27 1:40am 103 5 G 6 60° 96% - - 59° 63.3° 59.7° - - 1012.0
6/27 1:30am 96 5 G 7 60° 96% - - 59° 63.3° 60° - - 1012.0
6/27 1:20am 102 5 G 7 60° 95% - - 59° 63.3° 60° - - 1012.0
6/27 1:10am 97 5 G 7 61° 95% - - 60° 63.3° 60.4° - - 1012.0
6/27 1:00am 104 5 G 6 62° 95% - - 60° 63.3° 60.9° - - 1013.0
6/27 12:50am 108 4 G 5 61° 95% - - 60° 63.3° 60.9° - - 1013.0
6/27 12:40am 93 3 G 5 62° 95% - - 60° 63.3° 61.3° - - 1013.0
6/27 12:30am 105 5 G 6 62° 95% - - 61° 63.3° 61.4° - - 1013.0
6/27 12:20am 98 4 G 5 62° 95% - - 61° 63.3° 62.1° - - 1013.0
6/27 12:10am 101 4 G 5 63° 95% - - 61° 63.3° 62.4° - - 1013.0
6/27 12:00am 99 4 G 5 63° 94% - - 61° 73.1° 57.4° - - 1013.0
6/26 11:50pm 110 4 G 4 63° 94% - - 61° 73.1° 57.4° - - 1013.0
6/26 11:40pm 89 2 G 4 65° 94% - - 63° 73.1° 57.4° - - 1013.0
6/26 11:30pm 168 0 G 1 65° 94% - - 64° 73.1° 57.4° - - 1013.0
6/26 11:20pm 45 0 G 1 66° 94% - - 64° 73.1° 57.4° - - 1013.0
6/26 11:10pm 31 0 G 1 66° 94% - - 64° 73.1° 57.4° - - 1013.0
6/26 11:00pm 0 0 G 0 66° 94% - - 64° 73.1° 57.4° - - 1013.0
6/26 10:50pm 121 1 G 3 66° 94% - - 64° 73.1° 57.4° - - 1013.0
6/26 10:40pm 115 2 G 5 66° 94% - - 64° 73.1° 57.4° - - 1013.0
6/26 10:30pm 106 4 G 7 66° 94% - - 64° 73.1° 57.4° - - 1013.0
6/26 10:20pm 99 6 G 8 66° 94% - - 64° 73.1° 57.4° - - 1013.0
6/26 10:10pm 94 6 G 9 65° 94% - - 64° 73.1° 57.4° - - 1013.0
6/26 10:00pm 94 5 G 7 66° 93% - - 64° 73.1° 57.4° - - 1013.0
6/26 9:50pm 102 4 G 5 67° 92% - - 64° 73.1° 57.4° - - 1013.0
6/26 9:40pm 104 2 G 3 67° 93% - - 65° 73.1° 57.4° - - 1013.0
6/26 9:30pm 99 2 G 3 67° 91% - - 65° 73.1° 57.4° - - 1013.0
6/26 9:20pm 262 0 G 1 68° 91% - - 65° 73.1° 57.4° - - 1013.0
6/26 9:10pm 267 1 G 2 68° 91% - - 65° 73.1° 57.4° - - 1013.0
6/26 9:00pm 267 2 G 3 68° 91% - - 65° 73.1° 57.4° - - 1013.0
6/26 8:50pm 270 2 G 3 68° 91% - - 66° 73.1° 57.4° - - 1013.0
6/26 8:40pm 262 3 G 4 68° 91% - - 66° 73.1° 57.4° - - 1013.0
6/26 8:30pm 260 3 G 4 68° 91% - - 66° 73.1° 57.4° - - 1013.0
6/26 8:20pm 280 4 G 5 69° 91% - - 66° 73.1° 57.4° - - 1013.0
6/26 8:10pm 286 3 G 4 69° 90% - - 66° 73.1° 57.4° - - 1013.0
6/26 8:00pm 275 3 G 5 69° 89% - - 66° 73.1° 57.4° - - 1013.0
6/26 7:50pm 276 4 G 5 69° 87% - - 65° 73.1° 57.4° - - 1013.0
6/26 7:40pm 277 4 G 5 70° 86% - - 65° 73.1° 57.4° - - 1013.0
6/26 7:30pm 275 4 G 5 70° 87% - - 66° 73.1° 57.4° - - 1013.0
6/26 7:20pm 266 3 G 4 70° 87% - - 66° 73.1° 57.4° - - 1012.0
6/26 7:10pm 263 3 G 4 70° 86% - - 66° 73.1° 57.4° - - 1013.0
6/26 7:00pm 265 3 G 4 70° 86% - - 66° 73.1° 57.4° - - 1013.0
6/26 6:50pm 266 3 G 4 70° 86% - - 66° 73.1° 57.4° - - 1013.0
6/26 6:40pm 268 4 G 5 71° 84% - - 66° 73.1° 57.4° - - 1013.0
6/26 6:30pm 275 4 G 5 71° 84% - - 66° 73.1° 57.4° - - 1013.0
6/26 6:20pm 285 4 G 5 71° 84% - - 66° 73.1° 57.4° - - 1013.0
6/26 6:10pm 280 4 G 5 71° 83% - - 66° 73.1° 57.4° - - 1013.0
6/26 6:00pm 287 4 G 6 71° 82% - - 66° 73.1° 57.4° - - 1013.0
6/26 5:50pm 288 4 G 6 72° 82% - - 66° 73.1° 57.4° - - 1013.0
6/26 5:40pm 290 4 G 6 72° 82% - - 66° 73.1° 57.4° - - 1013.0
6/26 5:30pm 293 5 G 6 72° 81% - - 66° 73.1° 57.4° - - 1013.0
6/26 5:20pm 288 5 G 7 72° 81% - - 66° 73.1° 57.4° - - 1013.0
6/26 5:10pm 288 5 G 6 72° 80% - - 65° 73.1° 57.4° - - 1013.0
6/26 5:00pm 279 4 G 6 72° 80% - - 66° 73.1° 57.4° - - 1013.0
6/26 4:50pm 273 5 G 7 71° 83% - - 66° 72.1° 57.4° - - 1013.0
6/26 4:40pm 245 5 G 7 71° 88% - - 67° 71.3° 57.4° - - 1014.0
6/26 4:30pm 254 4 G 7 70° 88% - - 67° 71.1° 57.4° - - 1014.0
6/26 4:20pm 247 4 G 7 70° 90% - - 67° 70.7° 57.4° - - 1014.0
6/26 4:10pm 247 4 G 6 69° 92% - - 66° 69.7° 57.4° - - 1014.0
6/26 4:00pm 247 4 G 5 68° 93% - - 66° 68.8° 57.4° - - 1014.0
6/26 3:50pm 246 4 G 6 68° 93% - - 66° 68.5° 57.4° - - 1014.0
6/26 3:40pm 253 4 G 5 67° 93% - - 65° 68.3° 57.4° - - 1014.0
6/26 3:30pm 249 4 G 7 67° 93% - - 65° 68.3° 57.4° - - 1014.0
6/26 3:20pm 254 4 G 7 67° 93% - - 65° 68.3° 57.4° - - 1014.0
6/26 3:10pm 258 4 G 6 67° 93% - - 65° 67.9° 57.4° - - 1014.0
6/26 3:00pm 260 4 G 7 67° 93% - - 65° 67.9° 57.4° - - 1014.0
6/26 2:50pm 245 4 G 6 67° 93% - - 65° 67.9° 57.4° - - 1014.0
6/26 2:40pm 256 5 G 7 67° 93% - - 65° 67.9° 57.4° - - 1014.0
6/26 2:30pm 250 5 G 7 67° 93% - - 64° 67.9° 57.4° - - 1014.0
6/26 2:20pm 252 4 G 7 67° 93% - - 65° 67.9° 57.4° - - 1014.0
6/26 2:10pm 253 6 G 8 66° 94% - - 64° 67.9° 57.4° - - 1014.0
6/26 2:00pm 249 6 G 8 66° 94% - - 64° 67.9° 57.4° - - 1015.0
6/26 1:50pm 242 6 G 8 66° 94% - - 64° 67.9° 57.4° - - 1015.0
6/26 1:40pm 243 7 G 9 66° 94% - - 64° 67.9° 57.4° - - 1014.0
6/26 1:30pm 242 7 G 9 66° 94% - - 64° 67.9° 57.4° - - 1015.0
6/26 1:20pm 242 5 G 7 66° 94% - - 64° 67.9° 57.4° - - 1015.0
6/26 1:10pm 246 5 G 7 66° 94% - - 64° 67.9° 57.4° - - 1015.0
6/26 1:00pm 232 5 G 7 65° 94% - - 64° 67.9° 57.4° - - 1015.0
6/26 12:50pm 226 7 G 9 65° 93% - - 64° 67.9° 57.4° - - 1015.0
6/26 12:40pm 226 7 G 9 66° 93% - - 64° 67.9° 57.4° - - 1015.0
6/26 12:30pm 218 7 G 10 66° 94% - - 64° 67.9° 57.4° - - 1015.0
6/26 12:20pm 215 7 G 10 66° 94% - - 64° 67.9° 57.4° - - 1015.0
6/26 12:10pm 215 8 G 11 66° 94% - - 64° 67.9° 57.4° - - 1015.0
6/26 12:00pm 211 9 G 11 66° 93% - - 64° 67.9° 57.4° - - 1015.0
6/26 11:50am 204 9 G 11 67° 91% - - 64° 67.9° 57.4° - - 1015.0
6/26 11:40am 216 8 G 11 67° 91% - - 65° 67.9° 57.4° - - 1015.0
6/26 11:30am 213 9 G 11 67° 91% - - 64° 67.9° 57.4° - - 1015.0
6/26 11:20am 210 8 G 10 67° 91% - - 64° 67.9° 57.4° - - 1015.0
6/26 11:10am 212 7 G 9 67° 91% - - 64° 67.9° 57.4° - - 1015.0
6/26 11:00am 216 7 G 9 67° 91% - - 64° 67.9° 57.4° - - 1015.0
6/26 10:50am 223 6 G 9 67° 90% - - 64° 67.9° 57.4° - - 1015.0
6/26 10:40am 220 6 G 9 66° 92% - - 64° 67.4° 57.4° - - 1015.0
6/26 10:30am 211 5 G 7 66° 92% - - 64° 66.5° 57.4° - - 1015.0
6/26 10:20am 221 5 G 7 66° 93% - - 64° 66.2° 57.4° - - 1014.0
6/26 10:10am 214 6 G 8 65° 94% - - 64° 65.9° 57.4° - - 1014.0
6/26 10:00am 218 6 G 8 65° 94% - - 63° 65.7° 57.4° - - 1014.0
6/26 9:50am 219 6 G 8 65° 95% - - 63° 65.2° 57.4° - - 1014.0
6/26 9:40am 223 5 G 8 64° 95% - - 63° 65.2° 57.4° - - 1014.0
6/26 9:30am 217 5 G 8 64° 95% - - 63° 65.2° 57.4° - - 1014.0
6/26 9:20am 226 5 G 6 64° 95% - - 63° 65.2° 57.4° - - 1014.0
6/26 9:10am 237 4 G 7 64° 95% - - 63° 65.2° 57.4° - - 1014.0
6/26 9:00am 251 3 G 5 64° 96% - - 63° 65.2° 57.4° - - 1014.0
6/26 8:50am 248 4 G 5 64° 96% - - 63° 65.2° 57.4° - - 1014.0
6/26 8:40am 245 3 G 4 63° 96% - - 62° 65.2° 57.4° - - 1014.0
6/26 8:30am 263 3 G 4 63° 97% - - 62° 65.2° 57.4° - - 1014.0
6/26 8:20am 271 3 G 4 63° 96% - - 62° 65.2° 57.4° - - 1014.0
6/26 8:10am 273 2 G 4 64° 97% - - 63° 65.2° 57.4° - - 1013.0
6/26 8:00am 120 1 G 2 64° 98% - - 63° 64.8° 57.4° - - 1013.0
6/26 7:50am 88 0 G 1 63° 98% - - 62° 63.8° 57.4° - - 1013.0
6/26 7:40am 17 1 G 2 62° 98% - - 61° 62.6° 57.4° - - 1013.0
6/26 7:30am 318 1 G 2 61° 98% - - 61° 62.3° 57.4° - - 1013.0
6/26 7:20am 281 1 G 2 61° 98% - - 61° 62.3° 57.4° - - 1013.0
6/26 7:10am 308 1 G 2 61° 98% - - 61° 62.3° 57.4° - - 1013.0
6/26 7:00am 81 1 G 1 60° 98% - - 60° 62.3° 57.4° - - 1013.0
6/26 6:50am 116 0 G 1 60° 98% - - 59° 62.3° 57.4° - - 1013.0
6/26 6:40am 124 2 G 3 59° 98% - - 59° 62.3° 57.4° - - 1013.0
6/26 6:30am 112 2 G 3 59° 98% - - 58° 62.3° 57.4° - - 1013.0
6/26 6:20am 79 4 G 5 59° 98% - - 58° 62.3° 57.4° - - 1013.0
6/26 6:10am 108 4 G 5 59° 99% - - 58° 62.3° 57.4° - - 1013.0
6/26 6:00am 107 5 G 6 58° 99% - - 58° 62.3° 57.4° - - 1013.0